Weather in Zinovkino

Russia / Bryansk Oblast     52°27′01″N   34°34′57″E
temp.,
°C
wind,
m/s
gust,
m/s
humid.,
%
clouds,
%
prec.,
mm/h
press.,
hPa
HPBL,
m
5 august, thu
thu500:00+15ese227175 0.0 101819
03:00+15se3767100 0.0 1017119
06:00+15se3771100 0.0 1016159
09:00+17se397097 0.1 1016309
12:00+19se5965100 0.4 1015407
15:00+26sse4744100 0.4 10131744
18:00+23sse345899 0.1 101188
21:00+18se51089100 3.1 1012226
6 august, fri
fri600:00+17sse4119394 0.7 1011244
03:00+17sse31292100 1.1 1010340
06:00+17se4128766 0.1 1009252
09:00+22sse41167100 0.3 1009455
12:00+28sse5841100 0.0 10081240
15:00+31sse683528 0.0 10062281
18:00+30se484377 0.0 1004486
21:00+21wnw61375100 0.0 1006564
7 august, sat
sat700:00+18ese118699 0.0 100713
03:00+18se3390100 0.7 100744
06:00+18sse3119270 1.6 1006321
09:00+21s4986100 2.8 1007684
12:00+24ssw4569100 0.2 10081075
15:00+24wsw3468100 0.4 10081145
18:00+25w3455100 0.1 10091021
21:00+18wnw31069100 0.1 1011243
8 august, sun
sun800:00+15nw2383100 0.0 101346
03:00+13n22900 0.0 101421
06:00+14nne01880 0.0 101410
09:00+21wnw12570 0.0 1015413
12:00+25wsw22440 0.0 10151378
15:00+27sw23406 0.0 10152060
18:00+26w234528 0.0 10151228
21:00+19nnw226897 0.0 101622
9 august, mon
mon900:00+17n227573 0.0 101716
03:00+16n11805 0.0 101811
06:00+16e11825 0.0 101811
09:00+23sse115711 0.0 1018311
12:00+27ssw22375 0.0 10181293
15:00+30w22317 0.0 10171701
18:00+29sse013925 0.0 1017610
21:00+22sse2252100 0.0 101812